Content
SEND FEEDBACK

Daily
Averages
Monthly
Summary
Canada

MONTREAL, QUEBEC


Home > North America > Canada > Quebec
Elevation: 118 feet     Latitude: 45 28N     Longitude: 073 45W

WEATHER
 
SELECT A DAY
Number of Records: 201,481;   Date Range: 1/1/95 - 10/22/14
 
SHARE

PRINT THIS DATA

[ ← Previous Day ]
WEATHER ALMANAC - FEBRUARY 13, 2013
[ Next Day → ]
[ °C ]   °F
Weather ElementAverageHighLow
Temperature30.7 °F32 °F (12:00 pm)28.4 °F (7:00 am)
Dewpoint21.6 °F26.6 °F (1:00 am) (7:00 pm)
Humidity75.3 %86 % (1:00 am)60 % (1:00 pm)
Barometer26.72 in29.84 in (8:00 am) (7:00 pm)
Wind Speed6.5 mph11.5 mph (1:00 am)
Weather ElementAverage
Visibility14.1 mi
Wind DirectionWSW (234.1 °)

Weather ElementTotal
Precipitation---
Heating Degree Days34.8 (Base 65)
Averaged from 29 records on February 13, 2013
WEATHER CONDITIONS BREAKOUT
WIND DIRECTION BREAKOUT
WEATHER BY HOUR - FEBRUARY 13, 2013
[ °C ]   °F
Local TimeTemperatureDewpointHumidityBarometerVisibilityWind DirectionWind SpeedGust SpeedPrecipitationEventsConditions
12:47 AM30.2 °F0.0 °F10.0 miWSW (250°)10.4 mphSnowLight Snow Showers
1:00 AM30.2 °F26.6 °F86 %29.82 in15.0 miWest (260°)11.5 mphSnowLight Snow
2:00 AM30.2 °F24.8 °F80 %29.82 in15.0 miWest (260°)8.1 mphSnowLight Snow
3:00 AM30.2 °F24.8 °F80 %29.82 in15.0 miWSW (250°)9.2 mphSnowLight Snow
4:00 AM30.2 °F24.8 °F80 %29.83 in15.0 miWest (260°)9.2 mphSnowLight Snow
5:00 AM30.2 °F24.8 °F80 %29.83 in10.0 miWest (270°)5.8 mphSnowLight Snow
6:00 AM30.2 °F24.8 °F80 %29.83 in10.0 miWest (260°)8.1 mphSnowLight Snow
7:00 AM28.4 °F23.0 °F80 %29.83 in15.0 miWest (260°)5.8 mphSnowLight Snow
7:00 AM29.0 °F23.0 °F71 %29.83 in15.0 miWest (260°)5.8 mphSnowLight Snow
8:00 AM28.4 °F23.0 °F80 %29.84 in12.0 miWSW (250°)6.9 mphSnowLight Snow
9:00 AM28.4 °F23.0 °F80 %29.84 in8.0 miWest (260°)6.9 mphSnowLight Snow
10:00 AM30.2 °F23.0 °F75 %29.84 in15.0 miWSW (250°)9.2 mphSnowLight Snow
11:00 AM30.2 °F23.0 °F75 %29.84 in15.0 miWest (260°)5.8 mphSnowLight Snow
12:00 PM32.0 °F24.8 °F75 %29.81 in15.0 miWest (260°)6.9 mphMostly Cloudy
1:00 PM32.0 °F23.0 °F69 %29.80 in15.0 miSSW (210°)6.9 mphMostly Cloudy
1:00 PM32.0 °F23.0 °F60 %29.80 in15.0 miSSW (210°)6.9 mphPartly Cloudy
2:00 PM32.0 °F24.8 °F75 %29.79 in15.0 miSSW (210°)10.4 mphOvercast
3:00 PM32.0 °F23.0 °F69 %29.78 in15.0 miSSW (210°)10.4 mphMostly Cloudy
4:00 PM32.0 °F23.0 °F69 %29.78 in15.0 miSW (220°)6.9 mphMostly Cloudy
5:00 PM32.0 °F24.8 °F75 %29.78 in15.0 miWNW (290°)3.5 mphOvercast
5:42 PM32.0 °F0.0 °F15.0 miWNW (290°)4.6 mphSnowLight Snow Showers
6:00 PM32.0 °F23.0 °F69 %29.78 in15.0 miWest (260°)3.5 mphSnowLight Snow Showers
7:00 PM32.0 °F23.0 °F69 %29.78 in15.0 miSSW (210°)2.3 mphSnowLight Snow Showers
7:00 PM32.0 °F23.0 °F60 %29.78 in15.0 miSSW (210°)3.5 mphSnowLight Snow Showers
8:00 PM32.0 °F24.8 °F75 %29.78 in15.0 miSSE (160°)5.8 mphSnowLight Snow
8:53 PM30.2 °F0.0 °F15.0 miSSE (150°)4.6 mphMostly Cloudy
9:00 PM30.2 °F24.8 °F80 %29.78 in15.0 miSSE (160°)3.5 mphMostly Cloudy
10:00 PM30.2 °F24.8 °F80 %29.78 in15.0 miSouth (170°)4.6 mphMostly Cloudy
11:00 PM30.2 °F26.6 °F86 %29.78 in15.0 miSW (220°)2.3 mphOvercast
Hourly data recorded from CYUL, located miles away from Montreal, Quebec







STORIES FROM OUR PARTNERS